User: anonymous   Login
Location: Irma
(52.9170°N, 111.2330°W)
Time: 05:43:38
(UTC-07:00)
Language:

deb Chang Zheng 4 - Orbit

View from above orbital plane
View from above orbital plane
View from above satellite
View from above satellite

Ground track
Ground track

The orbit data is extracted from the following two-line orbital elements,

1 20847U 90081K   17350.20726673  .00002052  00000-0  27023-3 0  9994
2 20847  98.5176 245.6733 0015543 204.6285 155.4185 14.81293689432744
Epoch (UTC): 16 December 2017 04:58:27
Eccentricity: 0.0015543
inclination: 98.5176°
perigee height: 614 km
apogee height: 636 km
right ascension of ascending node: 245.6733°
argument of perigee: 204.6285°
revolutions per day: 14.81293689
mean anomaly at epoch: 155.4185°
orbit number at epoch: 43274

The dashed part of the orbit path shows where the satellite is in the earth's shadow,  

DLR